Stigler, OK

9:19 PM CDT on March 23, 2017 (GMT -0500)
Stigler

Weather History for KGZL - January, 2014

Change the Weather History Date:

Sunday, January 12, 2014

  Actual Average (KJSV) Record (KJSV)
Temperature  
Mean Temperature 50 °F -  
Max Temperature 68 °F 45 °F 74 °F (1960)
Min Temperature 32 °F 25 °F 3 °F (1963)
Degree Days  
Heating Degree Days 15    
Moisture  
Dew Point 24 °F    
Average Humidity 41    
Maximum Humidity 80    
Minimum Humidity 13    
Precipitation  
Precipitation 0.00 in - - ()
Sea Level Pressure  
Sea Level Pressure 29.84 in    
Wind  
Wind Speed 11 mph (South)    
Max Wind Speed 29 mph    
Max Gust Speed 44 mph    
Visibility 10 miles    
Events      
Averages and records for this station are not official NWS values.
T = Trace of Precipitation, MM = Missing Value Source: NWS Daily Summary

Daily Weather History Graph

Daily Weather History Graph

Search for Another Location

Airport or City:

Trip Planner

Search our weather history database for the weather conditions in past years. The results will help you decide how hot, cold, wet, or windy it might be!

Date:

Astronomy

Jan. 12, 2014 Rise Set
Actual Time 7:29 AM CST 5:28 PM CST
Civil Twilight 7:01 AM CST 5:56 PM CST
Nautical Twilight 6:30 AM CST 6:27 PM CST
Astronomical Twilight 5:59 AM CST 6:58 PM CST
Moon 2:56 PM CST (1/12) 4:29 AM CST (1/12)
Length of Visible Light 10h 54m
Length of Day
9h 59m
Waxing Gibbous, 90% of the Moon is Illuminated
Jan 12
Waxing Gibbous
Jan 15
Full
Jan 23
Last Quarter
Jan 30
New
Feb 6
First Quarter

Hourly Weather History & Observations

Time (CST) Temp. Windchill Dew Point Humidity Pressure Visibility Wind Dir Wind Speed Gust Speed Precip Events Conditions
12:15 AM 32.0 °F - 26.6 °F 80% 30.02 in 10.0 mi Calm Calm - N/A   Unknown
12:35 AM 33.8 °F - 26.6 °F 75% 30.01 in 10.0 mi Calm Calm - N/A   Unknown
12:55 AM 32.0 °F 26.4 °F 26.6 °F 80% 30.00 in 10.0 mi SE 5.8 mph - N/A   Unknown
1:15 AM 35.6 °F 30.7 °F 26.6 °F 70% 29.99 in 10.0 mi SE 5.8 mph - N/A   Unknown
1:35 AM 33.8 °F 29.6 °F 26.6 °F 75% 29.98 in 10.0 mi SE 4.6 mph - N/A   Unknown
1:55 AM 32.0 °F 28.7 °F 26.6 °F 80% 29.99 in 10.0 mi ESE 3.5 mph - N/A   Unknown
2:15 AM 32.0 °F 25.6 °F 26.6 °F 80% 29.99 in 10.0 mi ESE 6.9 mph - N/A   Unknown
2:35 AM 32.0 °F 28.7 °F 26.6 °F 80% 29.98 in 10.0 mi East 3.5 mph - N/A   Unknown
2:55 AM 32.0 °F 28.7 °F 26.6 °F 80% 29.98 in 10.0 mi ESE 3.5 mph - N/A   Unknown
3:15 AM 32.0 °F 28.7 °F 26.6 °F 80% 29.98 in 10.0 mi East 3.5 mph - N/A   Unknown
3:35 AM 32.0 °F - 26.6 °F 80% 29.98 in 10.0 mi Calm Calm - N/A   Unknown
3:55 AM 32.0 °F 28.7 °F 26.6 °F 80% 29.98 in 10.0 mi East 3.5 mph - N/A   Unknown
4:15 AM 32.0 °F 24.8 °F 26.6 °F 80% 29.96 in 10.0 mi East 8.1 mph - N/A   Unknown
4:35 AM 35.6 °F 27.5 °F 26.6 °F 70% 29.95 in 10.0 mi ESE 11.5 mph - N/A   Unknown
4:55 AM 35.6 °F 27.5 °F 26.6 °F 70% 29.95 in 10.0 mi ESE 11.5 mph - N/A   Unknown
5:15 AM 35.6 °F 28.6 °F 26.6 °F 70% 29.95 in 10.0 mi SE 9.2 mph - N/A   Unknown
5:35 AM 35.6 °F 29.9 °F 26.6 °F 70% 29.95 in 10.0 mi ESE 6.9 mph - N/A   Unknown
5:55 AM 35.6 °F 32.8 °F 26.6 °F 70% 29.96 in 10.0 mi SE 3.5 mph - N/A   Unknown
6:15 AM 35.6 °F 30.7 °F 26.6 °F 70% 29.96 in 10.0 mi ESE 5.8 mph - N/A   Unknown
6:35 AM 35.6 °F 29.2 °F 26.6 °F 70% 29.96 in 10.0 mi ESE 8.1 mph - N/A   Unknown
6:55 AM 37.4 °F 30.3 °F 26.6 °F 65% 29.96 in 10.0 mi ESE 10.4 mph - N/A   Unknown
7:15 AM 35.6 °F 27.5 °F 26.6 °F 70% 29.96 in 10.0 mi ESE 11.5 mph - N/A   Unknown
7:35 AM 37.4 °F 30.8 °F 24.8 °F 60% 29.96 in 10.0 mi ESE 9.2 mph - N/A   Unknown
7:55 AM 37.4 °F 32.8 °F 24.8 °F 60% 29.96 in 10.0 mi SE 5.8 mph - N/A   Unknown
8:15 AM 37.4 °F 32.8 °F 26.6 °F 65% 29.96 in 10.0 mi ESE 5.8 mph - N/A   Unknown
8:35 AM 41.0 °F 37.1 °F 26.6 °F 57% 29.95 in 10.0 mi ESE 5.8 mph - N/A   Unknown
8:55 AM 44.6 °F 40.7 °F 26.6 °F 49% 29.94 in 10.0 mi SSE 6.9 mph - N/A   Unknown
9:15 AM 53.6 °F - 23.0 °F 30% 29.94 in 10.0 mi South 10.4 mph - N/A   Unknown
9:35 AM 55.4 °F - 21.2 °F 26% 29.95 in 10.0 mi SSW 13.8 mph 20.7 mph N/A   Unknown
9:55 AM 59.0 °F - 19.4 °F 22% 29.94 in 10.0 mi SSW 12.7 mph 21.9 mph N/A   Unknown
10:15 AM 59.0 °F - 19.4 °F 22% 29.92 in 10.0 mi South 18.4 mph 31.1 mph N/A   Unknown
10:35 AM 60.8 °F - 17.6 °F 19% 29.91 in 10.0 mi SSW 20.7 mph 26.5 mph N/A   Unknown
10:55 AM 62.6 °F - 15.8 °F 16% 29.90 in 10.0 mi SSW 23.0 mph 33.4 mph N/A   Unknown
11:15 AM 62.6 °F - 15.8 °F 16% 29.89 in 10.0 mi SSW 25.3 mph 32.2 mph N/A   Unknown
11:35 AM 64.4 °F - 15.8 °F 15% 29.87 in 10.0 mi SW 23.0 mph 32.2 mph N/A   Unknown
11:55 AM 66.2 °F - 14.0 °F 13% 29.84 in 10.0 mi SSW 28.8 mph 41.4 mph N/A   Unknown
12:15 PM 66.2 °F - 14.0 °F 13% 29.82 in 10.0 mi SW 24.2 mph 33.4 mph N/A   Unknown
12:35 PM 68.0 °F - 15.8 °F 13% 29.81 in 10.0 mi SW 23.0 mph 32.2 mph N/A   Unknown
12:55 PM 68.0 °F - 15.8 °F 13% 29.79 in 10.0 mi SSW 18.4 mph 31.1 mph N/A   Unknown
1:15 PM 66.2 °F - 17.6 °F 15% 29.78 in 10.0 mi SSW 24.2 mph 36.8 mph N/A   Unknown
1:35 PM 68.0 °F - 17.6 °F 15% 29.77 in 10.0 mi SSW 23.0 mph 32.2 mph N/A   Unknown
1:55 PM 68.0 °F - 17.6 °F 15% 29.76 in 10.0 mi SSW 23.0 mph 38.0 mph N/A   Unknown
2:15 PM 68.0 °F - 17.6 °F 15% 29.75 in 10.0 mi SSW 27.6 mph 40.3 mph N/A   Unknown
2:35 PM 68.0 °F - 17.6 °F 15% 29.74 in 10.0 mi SSW 23.0 mph 35.7 mph N/A   Unknown
2:55 PM 68.0 °F - 17.6 °F 15% 29.73 in 10.0 mi SSW 27.6 mph 43.7 mph N/A   Unknown
3:15 PM 68.0 °F - 19.4 °F 16% 29.72 in 10.0 mi SSW 26.5 mph 35.7 mph N/A   Unknown
3:35 PM 68.0 °F - 19.4 °F 16% 29.71 in 10.0 mi SSW 27.6 mph 39.1 mph N/A   Unknown
3:55 PM 68.0 °F - 19.4 °F 16% 29.72 in 10.0 mi SSW 19.6 mph 34.5 mph N/A   Unknown
4:15 PM 68.0 °F - 19.4 °F 16% 29.72 in 10.0 mi SSW 21.9 mph 36.8 mph N/A   Unknown
4:35 PM 68.0 °F - 21.2 °F 17% 29.72 in 10.0 mi SSW 20.7 mph 28.8 mph N/A   Unknown
4:55 PM 66.2 °F - 21.2 °F 18% 29.72 in 10.0 mi SSW 19.6 mph 27.6 mph N/A   Unknown
5:15 PM 64.4 °F - 21.2 °F 19% 29.71 in 10.0 mi SSW 18.4 mph 28.8 mph N/A   Unknown
5:35 PM 64.4 °F - 19.4 °F 18% 29.71 in 10.0 mi SSW 19.6 mph 29.9 mph N/A   Unknown
5:55 PM 64.4 °F - 19.4 °F 18% 29.71 in 10.0 mi SSW 16.1 mph 25.3 mph N/A   Unknown
6:15 PM 64.4 °F - 21.2 °F 19% 29.71 in 10.0 mi North - - N/A   Unknown
6:35 PM 64.4 °F - 19.4 °F 18% 29.71 in 10.0 mi SSW 19.6 mph 33.4 mph N/A   Unknown
6:55 PM 64.4 °F - 19.4 °F 18% 29.71 in 10.0 mi SSW 21.9 mph 35.7 mph N/A   Unknown
7:15 PM 64.4 °F - 19.4 °F 18% 29.70 in 10.0 mi SSW 24.2 mph 36.8 mph N/A   Unknown
7:35 PM 62.6 °F - 21.2 °F 20% 29.72 in 10.0 mi SSW 21.9 mph 36.8 mph N/A   Unknown
7:55 PM 62.6 °F - 21.2 °F 20% 29.73 in 10.0 mi SSW 17.3 mph 27.6 mph N/A   Unknown
8:15 PM 62.6 °F - 23.0 °F 22% 29.71 in 10.0 mi SSW 19.6 mph 33.4 mph N/A   Unknown
8:35 PM 62.6 °F - 24.8 °F 24% 29.71 in 10.0 mi SSW 20.7 mph 36.8 mph N/A   Unknown
8:55 PM 62.6 °F - 26.6 °F 26% 29.71 in 10.0 mi SSW 24.2 mph 38.0 mph N/A   Unknown
9:15 PM 60.8 °F - 30.2 °F 31% 29.71 in 10.0 mi SSW 26.5 mph 36.8 mph N/A   Unknown
9:35 PM 60.8 °F - 32.0 °F 34% 29.70 in 10.0 mi SSW 23.0 mph 32.2 mph N/A   Unknown
9:55 PM 60.8 °F - 32.0 °F 34% 29.71 in 10.0 mi SSW 24.2 mph 35.7 mph N/A   Unknown
10:15 PM 60.8 °F - 33.8 °F 36% 29.71 in 10.0 mi SW 23.0 mph 35.7 mph N/A   Unknown
10:35 PM 60.8 °F - 35.6 °F 39% 29.69 in 10.0 mi SSW 21.9 mph 33.4 mph N/A   Unknown
10:55 PM 59.0 °F - 35.6 °F 42% 29.69 in 10.0 mi SSW 21.9 mph 34.5 mph N/A   Unknown
11:15 PM 59.0 °F - 35.6 °F 42% 29.69 in 10.0 mi SW 25.3 mph 33.4 mph N/A   Unknown
11:35 PM 59.0 °F - 37.4 °F 45% 29.69 in 10.0 mi SW 21.9 mph 34.5 mph N/A   Unknown
11:55 PM 59.0 °F - 37.4 °F 45% 29.70 in 10.0 mi SW 20.7 mph 29.9 mph N/A   Unknown